KCHOKSHD

Guest
Details From KCHO - Charlottesville Albemarle
To KSHD - Shenandoah Valley Regional
Flight Number -
Tags Generated
Created
Modified
Stats Distance 22 nm / 41 km
Max Altitude 0 ft / 0 m
Waypoints 2
Social Downloads 2
Likes 0
Share VATSIM

Download

Looking for another format? Having issues loading an existing format? Contact us
Advertisement - Login to hide

Notes

Generated

Route

KCHO KSHD

ID Type Via Altitude Latitude Longitude Leg Dist Tot Dist Heading (true) Name
O KCHO APT - 0 ft / 0 m 38.13100˚ -78.45677˚ - 0 nm - -
O KSHD APT - 0 ft / 0 m 38.25737˚ -78.90292˚ 22 nm 22 nm 290° / 290° Shenandoah Valley Regional

Altitude Profile

Advertisement - Login to hide

KCHO

Details ICAO KCHO (CHO)
Name CHARLOTTESVILLE ALBEMARLE
Region United States
Timezone America/New_York (UTC-4.0)
Stats Elevation 639 ft / 195 m (AMSL)
Location 38.138630° -78.452848°
Runways 1
Magnetic Variation 9.830° W

METAR

KCHO 262253Z 16003KT 10SM FEW021 SCT028 BKN110 25/22 A2987 RMK AO2 RAE2155 SLP107 P0000 T02500222

Decode

TAF

KCHO 262045Z 2621/2718 18007KT 4SM -TSRA BR BKN025CB FM262200 20006KT P6SM BKN050 FM270600 VRB03KT 5SM BR SCT080 FM270900 VRB03KT 3SM BR SCT080

Decode

Departure Runways

ID Width Length Bearing (true) Bearing (mag) Surface Threshold Offset Overrun Length
03 151 ft / 46 m 6,010 ft / 1,832 m 22.02° 31.85° Asphalt 167 ft / 51 m 0 ft / 0 m
21 151 ft / 46 m 6,010 ft / 1,832 m 202.02° 211.85° Asphalt 184 ft / 56 m 0 ft / 0 m

KSHD

Details ICAO KSHD (SHD)
Name Shenandoah Valley Regional
Region United States
Timezone America/New_York (UTC-4.0)
Stats Elevation 1,201 ft / 366 m (AMSL)
Location 38.263840° -78.896471°
Runways 1
Magnetic Variation 9.578° W

METAR

KSHD 262335Z AUTO 00000KT 10SM SCT120 22/21 A2992 RMK AO2 T02200209

Decode

TAF

Not found

Destination Runways

ID Width Length Bearing (true) Bearing (mag) Surface Threshold Offset Overrun Length
05 151 ft / 46 m 5,995 ft / 1,827 m 38.05° 47.63° Asphalt 184 ft / 56 m 0 ft / 0 m
23 151 ft / 46 m 5,995 ft / 1,827 m 218.05° 227.63° Asphalt 157 ft / 48 m 26 ft / 8 m

Approach Navaids

Runway Type Ident Frequency Range Bearing (true) Bearing (mag) Slope Elevation
05 Localiser ISHD 109.50 MHz 18 nm / 33 km 38.14° 47.71° - 1,201 ft / 366 m (AMSL)
05 Glidescope ISHD 109.50 MHz 10 nm / 19 km 38.05° 47.63° 3.00° 1,178 ft / 359 m (AMSL)

Popular Alternatives